Date String (YYYY-MM-DD hh:mm:ss) UTC,Instrument flags,absolute air pressure of the measurement (hPa),sample flow rate (lpm),inlet stack bypass flow (lpm),air temperature of the measurement (°C),ambient temperature measured by the external sensor (°C),aerosol sample conditioner tube jacket temperature (°C),OPC LED temperature (°C),internal box temperature (°C),relative humidity of the measurement (%),span deviation,mass concentration of particles derived from Lorenz-Mie calculation of OPC scattering (μg/m³),mass concentration of particles derived from Lorenz-Mie calculation of OPC scattering (μg/m³),mass concentration of particles derived from Lorenz-Mie calculation of OPC scattering (μg/m³)
DateTimeUTC,F1_M11,P_M11,Q1_M11,Q2_M11,T1_M11,T2_M11,T3_M11,T4_M11,T5_M11,U1_M11,ZSPAN_M11,X2_M11,X0_M11,X1_M11
2023-08-22 21:00:00,SystemResetWarning,0834.8,5.00,000.00,027.4,024.2,000.0,035.5,028.9,23.5,0000.6,0009.23,0019.34,0007.48
2023-08-22 21:01:00,SystemResetWarning,0834.8,5.00,000.00,027.4,024.6,000.0,035.6,028.9,23.8,0000.1,0009.23,0019.21,0007.47
2023-08-22 21:02:00,SystemResetWarning,0834.7,5.00,000.00,027.4,025.0,000.0,035.6,029.0,23.8,-000.5,0009.22,0019.84,0007.48
2023-08-22 21:03:00,SystemResetWarning,0834.8,5.00,000.00,027.4,025.5,000.0,035.7,029.2,23.1,-000.8,0009.21,0020.55,0007.48
2023-08-22 21:04:00,SystemResetWarning,0834.8,5.00,000.00,027.5,025.9,000.0,035.7,029.3,23.4,-000.8,0009.23,0021.24,0007.49
2023-08-22 21:05:00,SystemResetWarning,0834.7,5.00,000.00,027.6,026.1,000.0,035.7,029.4,23.2,-000.5,0009.26,0021.79,0007.50
2023-08-22 21:06:00,SystemResetWarning,0834.9,4.98,000.00,027.6,025.1,000.0,035.7,029.2,23.4,-000.4,0009.30,0021.77,0007.50
2023-08-22 21:07:00,SystemResetWarning,0834.8,5.00,000.00,027.5,024.1,000.0,035.6,028.9,23.6,0000.1,0009.36,0022.50,0007.51
2023-08-22 21:08:00,SystemResetWarning,0834.7,5.02,000.00,027.4,024.4,000.0,035.6,028.9,23.8,-000.0,0009.36,0022.52,0007.53
2023-08-22 21:09:00,SystemResetWarning,0834.6,4.99,000.00,027.4,024.8,000.0,035.6,029.0,24.5,0000.1,0009.34,0022.90,0007.55
2023-08-22 21:10:00,SystemResetWarning,0835.1,5.00,000.00,027.4,025.2,000.0,035.7,029.1,24.3,0000.6,0009.32,0022.77,0007.55
2023-08-22 21:11:00,SystemResetWarning,0835.0,5.00,000.00,027.5,025.6,000.0,035.7,029.2,23.7,0000.7,0009.27,0022.46,0007.55
2023-08-22 21:12:00,SystemResetWarning,0835.0,5.01,000.00,027.5,026.0,000.0,035.7,029.4,23.6,0000.6,0009.27,0022.78,0007.56
2023-08-22 21:13:00,SystemResetWarning,0834.6,5.00,000.00,027.6,025.7,000.0,035.7,029.3,24.0,0001.0,0009.28,0022.38,0007.56
2023-08-22 21:14:00,SystemResetWarning,0834.5,4.98,000.00,027.5,024.3,000.0,035.6,029.0,23.7,0001.2,0009.32,0021.43,0007.57
2023-08-22 21:15:00,SystemResetWarning,0834.4,5.01,000.00,027.5,024.2,000.0,035.6,028.9,24.2,0001.2,0009.28,0020.00,0007.56
2023-08-22 21:16:00,SystemResetWarning,0834.3,5.00,000.00,027.4,024.6,000.0,035.6,029.0,23.3,0000.6,0009.26,0019.47,0007.56
2023-08-22 21:17:00,SystemResetWarning,0834.3,5.00,000.00,027.4,025.0,000.0,035.7,029.1,23.7,0000.3,0009.25,0020.00,0007.58
2023-08-22 21:18:00,SystemResetWarning,0834.4,5.00,000.00,027.5,025.4,000.0,035.7,029.2,23.7,0000.4,0009.20,0019.52,0007.58
2023-08-22 21:19:00,SystemResetWarning,0834.4,4.99,000.00,027.5,025.9,000.0,035.7,029.3,22.5,0000.9,0009.17,0019.64,0007.56
2023-08-22 21:20:00,SystemResetWarning,0834.6,4.98,000.00,027.6,025.5,000.0,035.7,029.3,23.3,0000.8,0009.20,0019.48,0007.54
2023-08-22 21:21:00,SystemResetWarning,0834.2,5.01,000.00,027.5,024.2,000.0,035.6,028.9,22.8,0000.9,0009.21,0019.81,0007.53
2023-08-22 21:22:00,SystemResetWarning,0834.2,5.01,000.00,027.4,024.1,000.0,035.6,028.9,22.5,0001.0,0009.24,0020.14,0007.53
2023-08-22 21:23:00,SystemResetWarning,0834.2,5.00,000.00,027.4,024.6,000.0,035.6,029.0,22.9,0001.0,0009.22,0019.55,0007.52
2023-08-22 21:24:00,SystemResetWarning,0834.3,5.00,000.00,027.4,025.0,000.0,035.7,029.0,23.0,0001.0,0009.28,0019.70,0007.53
2023-08-22 21:25:00,SystemResetWarning,0834.3,5.00,000.00,027.4,025.4,000.0,035.7,029.1,22.4,0001.2,0009.26,0019.66,0007.53
2023-08-22 21:26:00,SystemResetWarning,0834.2,5.00,000.00,027.5,025.9,000.0,035.7,029.3,22.0,0001.0,0009.32,0020.19,0007.54
2023-08-22 21:27:00,SystemResetWarning,0834.3,4.99,000.00,027.6,026.0,000.0,035.7,029.4,22.3,0001.3,0009.38,0021.68,0007.54
2023-08-22 21:28:00,SystemResetWarning,0834.3,4.99,000.00,027.6,024.9,000.0,035.7,029.1,22.4,0001.5,0009.35,0021.53,0007.51
2023-08-22 21:29:00,SystemResetWarning,0834.2,5.01,000.00,027.5,024.1,000.0,035.6,028.9,20.5,0001.3,0009.33,0022.47,0007.49
2023-08-22 21:30:00,SystemResetWarning,0834.2,5.01,000.00,027.4,024.5,000.0,035.6,028.9,20.4,0001.0,0009.37,0022.65,0007.51
2023-08-22 21:31:00,SystemResetWarning,0834.3,4.99,000.00,027.4,024.9,000.0,035.6,029.0,20.5,0001.2,0009.39,0022.93,0007.54
2023-08-22 21:32:00,SystemResetWarning,0834.3,5.01,000.00,027.5,025.4,000.0,035.7,029.2,20.5,0000.9,0009.39,0022.61,0007.55
2023-08-22 21:33:00,SystemResetWarning,0834.2,5.00,000.00,027.5,025.9,000.0,035.7,029.3,20.3,0000.9,0009.37,0022.74,0007.55
2023-08-22 21:34:00,SystemResetWarning,0834.2,5.00,000.00,027.6,026.0,000.0,035.7,029.4,20.5,0000.9,0009.35,0023.28,0007.57
2023-08-22 21:35:00,SystemResetWarning,0834.2,4.98,000.00,027.6,024.7,000.0,035.7,029.1,20.5,0000.9,0009.33,0023.27,0007.60
2023-08-22 21:36:00,SystemResetWarning,0834.1,5.01,000.00,027.5,024.1,000.0,035.6,028.9,20.3,0000.6,0009.37,0023.29,0007.62
2023-08-22 21:37:00,SystemResetWarning,0834.1,5.00,000.00,027.4,024.5,000.0,035.6,029.0,20.7,0000.9,0009.38,0023.46,0007.61
2023-08-22 21:38:00,SystemResetWarning,0834.1,5.00,000.00,027.4,024.9,000.0,035.6,029.0,20.6,0000.8,0009.38,0023.48,0007.63
2023-08-22 21:39:00,SystemResetWarning,0834.1,5.00,000.00,027.5,025.4,000.0,035.7,029.1,20.2,0000.8,0009.37,0022.69,0007.65
2023-08-22 21:40:00,SystemResetWarning,0834.1,5.00,000.00,027.5,025.8,000.0,035.7,029.3,20.3,0000.9,0009.33,0021.49,0007.65
2023-08-22 21:41:00,SystemResetWarning,0834.1,5.00,000.00,027.6,026.2,000.0,035.8,029.4,20.3,0001.0,0009.31,0021.02,0007.65
2023-08-22 21:42:00,SystemResetWarning,0834.1,4.99,000.00,027.7,026.3,000.0,035.8,029.5,20.4,0000.8,0009.25,0020.81,0007.64
2023-08-22 21:43:00,SystemResetWarning,0834.1,4.99,000.00,027.6,024.9,000.0,035.7,029.1,20.3,0000.9,0009.22,0019.88,0007.63
2023-08-22 21:44:00,SystemResetWarning,0834.1,5.01,000.00,027.5,024.2,000.0,035.6,029.0,20.5,0000.7,0009.16,0019.32,0007.64
2023-08-22 21:45:00,SystemResetWarning,0834.1,5.01,000.00,027.5,024.6,000.0,035.6,029.0,20.9,0000.5,0009.10,0018.24,0007.62
2023-08-22 21:46:00,SystemResetWarning,0834.1,5.00,000.00,027.5,025.0,000.0,035.7,029.1,21.1,0000.4,0009.09,0017.78,0007.60
2023-08-22 21:47:00,SystemResetWarning,0834.1,5.00,000.00,027.5,025.5,000.0,035.7,029.2,21.1,0000.6,0009.03,0018.96,0007.59
2023-08-22 21:48:00,SystemResetWarning,0834.1,5.00,000.00,027.6,025.9,000.0,035.8,029.3,21.0,0000.4,0008.93,0019.95,0007.57
2023-08-22 21:49:00,SystemResetWarning,0834.1,4.99,000.00,027.6,025.9,000.0,035.8,029.4,20.6,0000.7,0008.86,0019.05,0007.57
2023-08-22 21:50:00,SystemResetWarning,0834.0,4.99,000.00,027.6,024.6,000.0,035.7,029.1,20.5,0000.8,0008.83,0018.80,0007.57
2023-08-22 21:51:00,SystemResetWarning,0834.0,5.01,000.00,027.5,024.1,000.0,035.6,028.9,20.6,0001.0,0008.83,0019.38,0007.59
2023-08-22 21:52:00,SystemResetWarning,0834.0,5.00,000.00,027.5,024.5,000.0,035.6,029.0,20.7,0000.8,0008.80,0019.22,0007.59
2023-08-22 21:53:00,SystemResetWarning,0834.0,4.99,000.00,027.5,024.9,000.0,035.7,029.0,20.9,0000.6,0008.77,0018.71,0007.57
2023-08-22 21:54:00,SystemResetWarning,0834.0,5.00,000.00,027.5,025.4,000.0,035.7,029.2,21.0,0000.8,0008.72,0018.85,0007.55
2023-08-22 21:55:00,SystemResetWarning,0834.0,5.01,000.00,027.6,025.8,000.0,035.8,029.4,20.9,0000.8,0008.72,0018.68,0007.55
2023-08-22 21:56:00,SystemResetWarning,0834.0,5.00,000.00,027.6,026.2,000.0,035.8,029.5,21.1,0001.2,0008.72,0018.59,0007.56
2023-08-22 21:57:00,SystemResetWarning,0834.0,4.98,000.00,027.7,025.5,000.0,035.8,029.3,21.4,0001.3,0008.69,0018.61,0007.56
2023-08-22 21:58:00,SystemResetWarning,0834.0,5.01,000.00,027.6,024.3,000.0,035.7,028.9,21.3,0001.4,0008.63,0017.82,0007.54
2023-08-22 21:59:00,SystemResetWarning,0833.9,5.02,000.00,027.5,024.4,000.0,035.6,029.0,21.2,0001.7,0008.60,0016.46,0007.52
